UAL1150 KDFW-KORD

Flight info

Callsign UAL1150
Flight time 1h 36m
Altitude 37000
Route AKUNA9 MLC SGF WELTS TRTLL6
Aircraft A320/M-SDE3FGHIRWY/LB1

Departure

Time 2026-04-30 19:48
Airport Dallas Fort Worth International Airport (KDFW)

Arrival

Time 2026-04-30 21:24
Airport Chicago O'Hare International Airport (KORD)
Time Latitude Longitude Altitude Speed Heading
2026-04-30 18:54 32.88988 -97.03515 598 ft 0 kts 288°
2026-04-30 19:34 32.88986 -97.03506 598 ft 3 kts 290°
2026-04-30 19:34 32.88978 -97.03485 598 ft 3 kts 303°
2026-04-30 19:34 32.88949 -97.03458 597 ft 2 kts
2026-04-30 19:35 32.88945 -97.03459 597 ft 0 kts 15°
2026-04-30 19:37 32.88950 -97.03457 597 ft 2 kts 15°
2026-04-30 19:37 32.88971 -97.03445 597 ft 4 kts 44°
2026-04-30 19:38 32.88968 -97.03403 597 ft 7 kts 91°
2026-04-30 19:38 32.88964 -97.03336 597 ft 9 kts 123°
2026-04-30 19:38 32.88897 -97.03321 596 ft 11 kts 179°
2026-04-30 19:38 32.88811 -97.03321 596 ft 13 kts 180°
2026-04-30 19:39 32.88710 -97.03323 597 ft 15 kts 181°
2026-04-30 19:39 32.88595 -97.03325 597 ft 18 kts 180°
2026-04-30 19:39 32.88473 -97.03291 596 ft 19 kts 159°
2026-04-30 19:39 32.88342 -97.03288 597 ft 20 kts 181°
2026-04-30 19:40 32.88208 -97.03269 596 ft 17 kts 122°
2026-04-30 19:40 32.88113 -97.03206 591 ft 19 kts 171°
2026-04-30 19:40 32.87987 -97.03194 590 ft 17 kts 129°
2026-04-30 19:40 32.87979 -97.03114 581 ft 0 kts 89°
2026-04-30 19:46 32.87979 -97.03105 581 ft 5 kts 89°
2026-04-30 19:46 32.87984 -97.03033 579 ft 12 kts 70°
2026-04-30 19:47 32.88063 -97.03008 580 ft 13 kts
2026-04-30 19:47 32.88138 -97.03008 580 ft 20 kts 360°
2026-04-30 19:47 32.88714 -97.02997 576 ft 104 kts
2026-04-30 19:47 32.89609 -97.02989 578 ft 151 kts 360°
2026-04-30 19:48 32.90791 -97.03000 698 ft 181 kts
2026-04-30 19:48 32.92031 -97.02986 1351 ft 179 kts
2026-04-30 19:48 32.93276 -97.02950 2047 ft 178 kts
2026-04-30 19:48 32.94531 -97.02896 2559 ft 188 kts
2026-04-30 19:49 32.95909 -97.02848 2811 ft 209 kts
2026-04-30 19:49 32.99163 -97.02744 3748 ft 252 kts
2026-04-30 19:49 33.00939 -97.02696 4573 ft 260 kts
2026-04-30 19:50 33.02785 -97.02645 5378 ft 268 kts
2026-04-30 19:50 33.04668 -97.02592 6260 ft 271 kts
2026-04-30 19:50 33.06548 -97.02534 7045 ft 275 kts
2026-04-30 19:50 33.08459 -97.02123 7865 ft 286 kts 16°
2026-04-30 19:51 33.10325 -97.01165 8595 ft 295 kts 21°
2026-04-30 19:51 33.12209 -97.00145 9420 ft 300 kts 20°
2026-04-30 19:51 33.14133 -96.99101 10209 ft 306 kts 19°
2026-04-30 19:51 33.16139 -96.98018 10535 ft 328 kts 19°
2026-04-30 19:52 33.18270 -96.96872 10758 ft 351 kts 19°
2026-04-30 19:52 33.20578 -96.95631 11011 ft 372 kts 20°
2026-04-30 19:52 33.22971 -96.94336 11517 ft 380 kts 20°
2026-04-30 19:52 33.25383 -96.93024 12110 ft 384 kts 20°
2026-04-30 19:53 33.27836 -96.91687 12701 ft 388 kts 19°
2026-04-30 19:53 33.30279 -96.90355 13301 ft 392 kts 19°
2026-04-30 19:53 33.32780 -96.88994 13906 ft 396 kts 19°
2026-04-30 19:53 33.35301 -96.87625 14433 ft 400 kts 19°
2026-04-30 19:54 33.37848 -96.86245 14952 ft 404 kts 19°
2026-04-30 19:54 33.40420 -96.84849 15482 ft 408 kts 19°
2026-04-30 19:54 33.43030 -96.83431 16019 ft 412 kts 19°
2026-04-30 19:54 33.45656 -96.81991 16563 ft 417 kts 20°
2026-04-30 19:55 33.48247 -96.80457 17111 ft 423 kts 21°
2026-04-30 19:55 33.50903 -96.78776 17681 ft 428 kts 23°
2026-04-30 19:55 33.53496 -96.77069 18233 ft 433 kts 24°
2026-04-30 19:55 33.56155 -96.75297 18737 ft 438 kts 24°
2026-04-30 19:56 33.58823 -96.73527 19245 ft 442 kts 23°
2026-04-30 19:56 33.61540 -96.71745 19751 ft 446 kts 22°
2026-04-30 19:56 33.64285 -96.69968 20261 ft 450 kts 22°
2026-04-30 19:56 33.67063 -96.68186 20739 ft 454 kts 21°
2026-04-30 19:57 33.69838 -96.66417 21178 ft 458 kts 21°
2026-04-30 19:57 33.72668 -96.64615 21595 ft 462 kts 21°
2026-04-30 19:57 33.75528 -96.62784 22018 ft 466 kts 21°
2026-04-30 19:57 33.78399 -96.60935 22411 ft 470 kts 21°
2026-04-30 19:58 33.81300 -96.59059 22793 ft 474 kts 21°
2026-04-30 19:58 33.84217 -96.57168 23177 ft 478 kts 21°
2026-04-30 19:58 33.87136 -96.55274 23586 ft 482 kts 20°
2026-04-30 19:58 33.90093 -96.53355 23913 ft 485 kts 20°
2026-04-30 19:59 33.93086 -96.51415 24253 ft 487 kts 20°
2026-04-30 19:59 33.96081 -96.49476 24590 ft 489 kts 20°
2026-04-30 19:59 34.02079 -96.45586 25267 ft 493 kts 19°
2026-04-30 20:00 34.05113 -96.43616 25599 ft 495 kts 19°
2026-04-30 20:00 34.08094 -96.41455 25925 ft 504 kts 26°
2026-04-30 20:00 34.11005 -96.39075 26258 ft 507 kts 26°
2026-04-30 20:00 34.13936 -96.36680 26581 ft 509 kts 25°
2026-04-30 20:01 34.19822 -96.31890 27227 ft 512 kts 25°
2026-04-30 20:01 34.22764 -96.29498 27551 ft 514 kts 25°
2026-04-30 20:01 34.25741 -96.27073 27884 ft 515 kts 25°
2026-04-30 20:02 34.31660 -96.22221 28810 ft 513 kts 25°
2026-04-30 20:02 34.34605 -96.19798 29263 ft 511 kts 24°
2026-04-30 20:03 34.40451 -96.14996 30204 ft 509 kts 24°
2026-04-30 20:03 34.43390 -96.12583 30584 ft 508 kts 24°
2026-04-30 20:03 34.46323 -96.10175 30933 ft 509 kts 24°
2026-04-30 20:03 34.49264 -96.07759 31273 ft 509 kts 24°
2026-04-30 20:04 34.52206 -96.05340 31621 ft 510 kts 24°
2026-04-30 20:04 34.55105 -96.02954 31970 ft 510 kts 24°
2026-04-30 20:04 34.58043 -96.00533 32324 ft 511 kts 24°
2026-04-30 20:05 34.63935 -95.95665 33042 ft 512 kts 23°
2026-04-30 20:05 34.66888 -95.93220 33407 ft 512 kts 23°
2026-04-30 20:05 34.72793 -95.88333 34146 ft 513 kts 23°
2026-04-30 20:06 34.75738 -95.85888 34499 ft 512 kts 23°
2026-04-30 20:06 34.78672 -95.83451 34880 ft 510 kts 23°
2026-04-30 20:06 34.81561 -95.81052 35257 ft 507 kts 22°
2026-04-30 20:06 34.84466 -95.78635 35624 ft 506 kts 23°
2026-04-30 20:07 34.87342 -95.76152 35999 ft 506 kts 25°
2026-04-30 20:07 34.90170 -95.73572 36342 ft 507 kts 26°
2026-04-30 20:07 34.95701 -95.68258 36991 ft 506 kts 27°
2026-04-30 20:08 34.98420 -95.65615 37077 ft 506 kts 27°
2026-04-30 20:08 35.03982 -95.60296 37087 ft 508 kts 26°
2026-04-30 20:09 35.09597 -95.55022 37090 ft 508 kts 26°
2026-04-30 20:09 35.17062 -95.47996 37096 ft 508 kts 26°
2026-04-30 20:10 35.25457 -95.40035 37097 ft 509 kts 26°
2026-04-30 20:11 35.33811 -95.32085 37101 ft 509 kts 26°
2026-04-30 20:11 35.39419 -95.26747 37102 ft 509 kts 26°
2026-04-30 20:12 35.47798 -95.18753 37110 ft 510 kts 27°
2026-04-30 20:13 35.53393 -95.13396 37145 ft 510 kts 27°
2026-04-30 20:13 35.58999 -95.08012 37140 ft 510 kts 27°
2026-04-30 20:14 35.64594 -95.02633 37144 ft 510 kts 27°
2026-04-30 20:14 35.70154 -94.97287 37133 ft 510 kts 27°
2026-04-30 20:15 35.75760 -94.91898 37138 ft 510 kts 27°
2026-04-30 20:15 35.81322 -94.86531 37130 ft 510 kts 27°
2026-04-30 20:16 35.86899 -94.81120 37145 ft 509 kts 27°
2026-04-30 20:16 35.92480 -94.75707 37145 ft 509 kts 26°
2026-04-30 20:17 35.98056 -94.70288 37149 ft 509 kts 26°
2026-04-30 20:17 36.03604 -94.64895 37158 ft 509 kts 26°
2026-04-30 20:18 36.09179 -94.59463 37159 ft 509 kts 26°
2026-04-30 20:18 36.14733 -94.54030 37159 ft 509 kts 26°
2026-04-30 20:19 36.20292 -94.48581 37162 ft 509 kts 26°
2026-04-30 20:19 36.25857 -94.43132 37158 ft 509 kts 26°
2026-04-30 20:20 36.31394 -94.37712 37161 ft 509 kts 26°
2026-04-30 20:20 36.36965 -94.32236 37145 ft 510 kts 26°
2026-04-30 20:21 36.42483 -94.26786 37156 ft 510 kts 26°
2026-04-30 20:21 36.48050 -94.21279 37154 ft 510 kts 26°
2026-04-30 20:22 36.53609 -94.15775 37148 ft 511 kts 26°
2026-04-30 20:22 36.59172 -94.10257 37146 ft 511 kts 26°
2026-04-30 20:23 36.64696 -94.04771 37143 ft 511 kts 26°
2026-04-30 20:23 36.70252 -93.99247 37146 ft 511 kts 26°
2026-04-30 20:24 36.75814 -93.93701 37144 ft 511 kts 26°
2026-04-30 20:24 36.81368 -93.88154 37144 ft 511 kts 26°
2026-04-30 20:25 36.89673 -93.79841 37146 ft 512 kts 26°
2026-04-30 20:26 36.98010 -93.71465 37142 ft 512 kts 26°
2026-04-30 20:26 37.06320 -93.63091 37135 ft 513 kts 26°
2026-04-30 20:27 37.17436 -93.51868 37130 ft 514 kts 26°
2026-04-30 20:28 37.28575 -93.40563 37143 ft 514 kts 26°
2026-04-30 20:30 37.42578 -93.26762 37143 ft 507 kts 22°
2026-04-30 20:31 37.59774 -93.11159 37140 ft 510 kts 23°
2026-04-30 20:32 37.73825 -92.98031 37154 ft 510 kts 24°
2026-04-30 20:33 37.82408 -92.90033 37146 ft 509 kts 24°
2026-04-30 20:34 37.90930 -92.82069 37147 ft 509 kts 24°
2026-04-30 20:35 37.99480 -92.74051 37141 ft 509 kts 24°
2026-04-30 20:35 38.07983 -92.66058 37151 ft 508 kts 24°
2026-04-30 20:36 38.13681 -92.60683 37146 ft 508 kts 24°
2026-04-30 20:37 38.22098 -92.52723 37156 ft 508 kts 24°
2026-04-30 20:37 38.27819 -92.47301 37139 ft 508 kts 24°
2026-04-30 20:38 38.33508 -92.41904 37134 ft 509 kts 24°
2026-04-30 20:38 38.39123 -92.36555 37126 ft 509 kts 24°
2026-04-30 20:39 38.47649 -92.28412 37127 ft 510 kts 24°
2026-04-30 20:40 38.56142 -92.20295 37131 ft 510 kts 24°
2026-04-30 20:40 38.61845 -92.14824 37139 ft 510 kts 24°
2026-04-30 20:41 38.70325 -92.06653 37133 ft 510 kts 24°
2026-04-30 20:41 38.75995 -92.01177 37120 ft 510 kts 24°
2026-04-30 20:42 38.81682 -91.95686 37121 ft 510 kts 24°
2026-04-30 20:43 38.90153 -91.87489 37133 ft 510 kts 24°
2026-04-30 20:43 38.95827 -91.81974 37127 ft 510 kts 25°
2026-04-30 20:44 39.01329 -91.76122 37120 ft 525 kts 36°
2026-04-30 20:44 39.03742 -91.72532 37118 ft 533 kts 40°
2026-04-30 20:45 39.13143 -91.57839 37113 ft 532 kts 40°
2026-04-30 20:45 39.17868 -91.50453 37113 ft 532 kts 40°
2026-04-30 20:46 39.27251 -91.35743 37111 ft 531 kts 41°
2026-04-30 20:47 39.34245 -91.24730 37116 ft 530 kts 41°
2026-04-30 20:48 39.41259 -91.13649 37144 ft 529 kts 41°
2026-04-30 20:48 39.45895 -91.06313 37161 ft 528 kts 41°
2026-04-30 20:49 39.50544 -90.98944 37165 ft 527 kts 41°
2026-04-30 20:50 39.57479 -90.87892 37168 ft 526 kts 42°
2026-04-30 20:50 39.62057 -90.80555 37156 ft 525 kts 42°
2026-04-30 20:51 39.66650 -90.73187 37143 ft 524 kts 42°
2026-04-30 20:51 39.73539 -90.62141 37105 ft 523 kts 42°
2026-04-30 20:52 39.78122 -90.54766 37099 ft 523 kts 42°
2026-04-30 20:53 39.84928 -90.43750 37100 ft 522 kts 43°
2026-04-30 20:53 39.89480 -90.36367 37094 ft 521 kts 43°
2026-04-30 20:54 39.95544 -90.26639 37086 ft 515 kts 38°
2026-04-30 20:55 40.03446 -90.17479 37099 ft 505 kts 31°
2026-04-30 20:55 40.08754 -90.11524 37104 ft 505 kts 31°
2026-04-30 20:56 40.16727 -90.02531 37115 ft 504 kts 31°
2026-04-30 20:57 40.24717 -89.93509 37105 ft 504 kts 32°
2026-04-30 20:57 40.29996 -89.87515 37067 ft 502 kts 32°
2026-04-30 20:58 40.35359 -89.81433 36593 ft 516 kts 32°
2026-04-30 20:58 40.38070 -89.78356 36037 ft 513 kts 32°
2026-04-30 20:58 40.40718 -89.75333 35560 ft 508 kts 32°
2026-04-30 20:58 40.43371 -89.72296 34985 ft 506 kts 32°
2026-04-30 20:59 40.48668 -89.66236 33915 ft 501 kts 32°
2026-04-30 20:59 40.51293 -89.63232 33287 ft 498 kts 32°
2026-04-30 21:00 40.56492 -89.57285 31997 ft 495 kts 32°
2026-04-30 21:00 40.61630 -89.51372 31020 ft 484 kts 32°
2026-04-30 21:01 40.66661 -89.45574 30079 ft 474 kts 33°
2026-04-30 21:01 40.69125 -89.42734 29505 ft 469 kts 32°
2026-04-30 21:01 40.74091 -89.37024 27472 ft 478 kts 33°
2026-04-30 21:02 40.76576 -89.34126 26804 ft 475 kts 33°
2026-04-30 21:02 40.79030 -89.31211 26187 ft 471 kts 33°
2026-04-30 21:02 40.81443 -89.28311 25605 ft 466 kts 34°
2026-04-30 21:02 40.83824 -89.25434 25026 ft 462 kts 34°
2026-04-30 21:03 40.86188 -89.22577 24463 ft 457 kts 34°
2026-04-30 21:03 40.88499 -89.19798 24153 ft 455 kts 33°
2026-04-30 21:03 40.90861 -89.16977 23917 ft 465 kts 33°
2026-04-30 21:03 40.93310 -89.14080 23701 ft 476 kts 34°
2026-04-30 21:04 40.95788 -89.11134 23167 ft 477 kts 34°
2026-04-30 21:04 40.98239 -89.08196 22297 ft 472 kts 35°
2026-04-30 21:04 41.03035 -89.02396 20686 ft 461 kts 36°
2026-04-30 21:05 41.05370 -88.99579 19910 ft 456 kts 36°
2026-04-30 21:05 41.07727 -88.96736 19137 ft 451 kts 37°
2026-04-30 21:05 41.10018 -88.93972 18399 ft 446 kts 37°
2026-04-30 21:05 41.12308 -88.91208 17622 ft 441 kts 37°
2026-04-30 21:06 41.14558 -88.88488 16936 ft 434 kts 37°
2026-04-30 21:06 41.16786 -88.85793 16249 ft 430 kts 38°
2026-04-30 21:06 41.18987 -88.83125 15599 ft 426 kts 38°
2026-04-30 21:06 41.21146 -88.80505 14956 ft 423 kts 38°
2026-04-30 21:07 41.23303 -88.77890 14437 ft 417 kts 38°
2026-04-30 21:07 41.25430 -88.75310 13915 ft 411 kts 38°
2026-04-30 21:07 41.27529 -88.72758 13355 ft 406 kts 38°
2026-04-30 21:07 41.29615 -88.70222 12850 ft 402 kts 38°
2026-04-30 21:08 41.31651 -88.67748 12338 ft 400 kts 39°
2026-04-30 21:08 41.33702 -88.65258 11847 ft 398 kts 39°
2026-04-30 21:08 41.35738 -88.62784 11344 ft 395 kts 39°
2026-04-30 21:08 41.37761 -88.60321 11050 ft 393 kts 39°
2026-04-30 21:09 41.39850 -88.57985 11020 ft 390 kts 30°
2026-04-30 21:09 41.42264 -88.56437 11024 ft 383 kts 13°
2026-04-30 21:09 41.44860 -88.55876 11025 ft 376 kts 360°
2026-04-30 21:09 41.47449 -88.55651 11020 ft 364 kts 359°
2026-04-30 21:10 41.49910 -88.55435 11014 ft 343 kts 359°
2026-04-30 21:10 41.52233 -88.55234 11009 ft 325 kts 359°
2026-04-30 21:10 41.54407 -88.55049 11008 ft 308 kts 359°
2026-04-30 21:10 41.56497 -88.54875 11005 ft 294 kts 359°
2026-04-30 21:11 41.58519 -88.54706 11004 ft 283 kts 358°
2026-04-30 21:11 41.60461 -88.54548 11002 ft 282 kts 358°
2026-04-30 21:11 41.62421 -88.54388 10991 ft 282 kts 358°
2026-04-30 21:11 41.64388 -88.54229 10790 ft 282 kts 359°
2026-04-30 21:12 41.66338 -88.54069 10539 ft 279 kts 359°
2026-04-30 21:12 41.68269 -88.53911 10292 ft 277 kts 359°
2026-04-30 21:12 41.70191 -88.53755 10044 ft 276 kts 359°
2026-04-30 21:12 41.72109 -88.53595 9864 ft 275 kts 359°
2026-04-30 21:13 41.74019 -88.53432 9729 ft 276 kts 359°
2026-04-30 21:13 41.75914 -88.53274 9595 ft 275 kts 359°
2026-04-30 21:13 41.77834 -88.53114 9459 ft 275 kts 359°
2026-04-30 21:13 41.79743 -88.52947 9329 ft 274 kts 359°
2026-04-30 21:14 41.81645 -88.52780 9190 ft 274 kts 359°
2026-04-30 21:14 41.83532 -88.52618 9060 ft 268 kts 360°
2026-04-30 21:14 41.85365 -88.52461 8978 ft 258 kts 359°
2026-04-30 21:14 41.87110 -88.52311 8984 ft 245 kts 359°
2026-04-30 21:15 41.88747 -88.52170 8991 ft 234 kts 359°
2026-04-30 21:15 41.90371 -88.52032 8995 ft 234 kts 359°
2026-04-30 21:15 41.92001 -88.51893 9010 ft 234 kts 359°
2026-04-30 21:15 41.93624 -88.51757 9011 ft 234 kts 359°
2026-04-30 21:16 41.95251 -88.51625 9011 ft 234 kts 359°
2026-04-30 21:16 41.96879 -88.51452 9010 ft 236 kts
2026-04-30 21:16 41.98410 -88.50604 9010 ft 243 kts 32°
2026-04-30 21:16 41.99574 -88.48940 9001 ft 249 kts 57°
2026-04-30 21:17 42.00157 -88.46723 8618 ft 256 kts 85°
2026-04-30 21:17 42.00183 -88.44342 8191 ft 260 kts 90°
2026-04-30 21:17 42.00180 -88.41894 7821 ft 263 kts 90°
2026-04-30 21:17 42.00183 -88.39431 7470 ft 263 kts 90°
2026-04-30 21:18 42.00190 -88.36958 7117 ft 264 kts 90°
2026-04-30 21:18 42.00197 -88.34497 6869 ft 261 kts 90°
2026-04-30 21:18 42.00205 -88.32087 6542 ft 262 kts 90°
2026-04-30 21:18 42.00214 -88.29633 6178 ft 262 kts 90°
2026-04-30 21:19 42.00222 -88.27219 5819 ft 254 kts 90°
2026-04-30 21:19 42.00230 -88.24880 5472 ft 246 kts 90°
2026-04-30 21:19 42.00237 -88.22604 5139 ft 239 kts 90°
2026-04-30 21:19 42.00243 -88.20408 4825 ft 231 kts 90°
2026-04-30 21:20 42.00248 -88.18290 4549 ft 222 kts 90°
2026-04-30 21:20 42.00253 -88.16215 4212 ft 220 kts 90°
2026-04-30 21:20 42.00257 -88.14181 3905 ft 215 kts 90°
2026-04-30 21:20 42.00261 -88.12228 3622 ft 206 kts 90°
2026-04-30 21:21 42.00265 -88.10370 3348 ft 191 kts 90°
2026-04-30 21:21 42.00268 -88.08628 3112 ft 183 kts 90°
2026-04-30 21:21 42.00273 -88.05310 2625 ft 168 kts 90°
2026-04-30 21:22 42.00275 -88.03795 2410 ft 158 kts 90°
2026-04-30 21:22 42.00281 -87.99510 1724 ft 149 kts 90°
2026-04-30 21:23 42.00283 -87.98151 1486 ft 142 kts 89°
2026-04-30 21:23 42.00278 -87.96858 1282 ft 136 kts 89°
2026-04-30 21:23 42.00284 -87.94373 952 ft 131 kts 89°
2026-04-30 21:24 42.00284 -87.93145 785 ft 131 kts 89°
2026-04-30 21:24 42.00281 -87.91945 675 ft 123 kts 88°
2026-04-30 21:24 42.00286 -87.91064 670 ft 52 kts 90°
2026-04-30 21:24 42.00285 -87.90901 670 ft 7 kts 90°
2026-04-30 21:25 42.00285 -87.90585 672 ft 21 kts 89°
2026-04-30 21:25 42.00285 -87.90372 667 ft 25 kts 95°
2026-04-30 21:25 42.00227 -87.90136 669 ft 28 kts 117°
2026-04-30 21:26 41.99881 -87.89920 669 ft 32 kts 181°
2026-04-30 21:26 41.99677 -87.90034 669 ft 32 kts 195°
2026-04-30 21:27 41.99278 -87.90036 669 ft 31 kts 179°
2026-04-30 21:27 41.99055 -87.90036 669 ft 33 kts 180°
2026-04-30 21:27 41.98817 -87.90037 669 ft 35 kts 180°
2026-04-30 21:28 41.98359 -87.90043 670 ft 21 kts 180°
2026-04-30 21:28 41.98289 -87.90149 669 ft 17 kts 266°
2026-04-30 21:28 41.98286 -87.90518 668 ft 23 kts 268°
2026-04-30 21:29 41.98282 -87.90734 668 ft 24 kts 259°
2026-04-30 21:29 41.98001 -87.90862 669 ft 19 kts 189°
2026-04-30 21:30 41.97764 -87.90930 669 ft 12 kts 239°
2026-04-30 21:31 41.97773 -87.90998 669 ft 0 kts 282°